Time_in_sec,gx,gy,gz
1314892359.19247317,0.21845184,0.05516689,-0.97428713
1314892359.24451256,0.21835956,0.05542392,-0.97429323
1314892359.29350424,0.21814606,0.05548777,-0.97433742
1314892359.34465480,0.21787345,0.05575433,-0.97438320
1314892359.39350438,0.21780188,0.05567779,-0.97440357
1314892359.44450808,0.21793057,0.05527630,-0.97439766
1314892359.49346423,0.21811382,0.05530907,-0.97435480
1314892359.54481149,0.21812375,0.05508856,-0.97436506
1314892359.59248734,0.21836897,0.05494044,-0.97431850
1314892359.64472914,0.21834057,0.05499339,-0.97432188
1314892359.69251871,0.21827516,0.05449931,-0.97436430
1314892359.74436402,0.21851883,0.05484899,-0.97429005
1314892359.79353905,0.21860899,0.05472064,-0.97427704
1314892359.84508252,0.21841905,0.05479391,-0.97431553
1314892359.89347720,0.21836260,0.05484091,-0.97432554
1314892359.94510674,0.21851646,0.05467060,-0.97430061
1314892359.99375725,0.21859196,0.05478930,-0.97427701
1314892360.04574323,0.21864630,0.05477370,-0.97426569
1314892360.09352541,0.21859955,0.05509587,-0.97425802
1314892360.14701986,0.21880629,0.05505690,-0.97421381
1314892360.19347167,0.21910526,0.05470309,-0.97416655
1314892360.24450707,0.21909710,0.05477936,-0.97416410
1314892360.29258108,0.21915106,0.05466128,-0.97415859
1314892360.34148979,0.21898763,0.05469526,-0.97419344
1314892360.39353395,0.21901934,0.05476821,-0.97418221
1314892360.44511151,0.21906607,0.05442090,-0.97419116
1314892360.49367690,0.21885180,0.05469553,-0.97422394
1314892360.54458714,0.21880565,0.05463748,-0.97423757
1314892360.59244990,0.21888352,0.05467226,-0.97421812
1314892360.64459562,0.21895055,0.05464045,-0.97420484
1314892360.69361567,0.21905466,0.05442094,-0.97419373
1314892360.74864292,0.21902994,0.05459180,-0.97418973
1314892360.79360175,0.21877435,0.05457698,-0.97424798
1314892360.84552383,0.21888559,0.05479906,-0.97421053
1314892360.89363647,0.21891560,0.05464304,-0.97421255
1314892360.94494343,0.21865007,0.05382755,-0.97431758
1314892360.99365950,0.21881859,0.05404801,-0.97426754
1314892361.04569244,0.21894317,0.05404256,-0.97423985
1314892361.09258723,0.21882073,0.05400233,-0.97426959
1314892361.14496279,0.21882637,0.05394482,-0.97427151
1314892361.19250584,0.21904539,0.05393754,-0.97422269
1314892361.24099207,0.21916131,0.05383001,-0.97420257
1314892361.29214835,0.21923191,0.05383565,-0.97418637
1314892361.34167290,0.21937435,0.05378361,-0.97415718
1314892361.39359999,0.21960107,0.05392442,-0.97409831
1314892361.44457483,0.21981089,0.05386524,-0.97405426
1314892361.49361491,0.21985174,0.05395139,-0.97404028
1314892361.54487014,0.21980657,0.05398612,-0.97404855
1314892361.59251881,0.21995987,0.05407805,-0.97400884
1314892361.64475226,0.21993657,0.05404090,-0.97401616
1314892361.69361162,0.22023914,0.05378969,-0.97396170
1314892361.74451566,0.22012645,0.05369407,-0.97399245
1314892361.79352403,0.22027289,0.05371549,-0.97395816
1314892361.84160924,0.22020615,0.05382902,-0.97396699
1314892361.89350581,0.22029974,0.05351317,-0.97396323
1314892361.94448519,0.22054490,0.05320871,-0.97392442
1314892361.99258709,0.22071060,0.05324920,-0.97388467
1314892362.04457498,0.22048425,0.05315839,-0.97394090
1314892362.09261703,0.22021649,0.05322999,-0.97399757
1314892362.14855051,0.22024117,0.05329056,-0.97398868
1314892362.19253302,0.22008017,0.05304955,-0.97403823
1314892362.24853897,0.22000646,0.05306837,-0.97405385
1314892362.29252529,0.22009002,0.05318533,-0.97402860
1314892362.34550405,0.21978923,0.05314671,-0.97409862
1314892362.39252210,0.21990454,0.05300102,-0.97408053
1314892362.44450378,0.21986007,0.05299281,-0.97409102
1314892362.49257898,0.21990539,0.05307741,-0.97407618
1314892362.54459715,0.21995864,0.05306648,-0.97406475
1314892362.59365773,0.21979126,0.05307094,-0.97410229
1314892362.64600301,0.21976718,0.05311220,-0.97410548
1314892362.69351315,0.21969595,0.05283395,-0.97413668
1314892362.74449849,0.21996196,0.05254315,-0.97409237
1314892362.79353571,0.21990890,0.05248864,-0.97410729
1314892362.84493804,0.21979574,0.05243424,-0.97413576
1314892362.89393473,0.21973982,0.05235215,-0.97415279
1314892362.94501066,0.22012822,0.05235065,-0.97406518
1314892362.99151063,0.21986323,0.05218800,-0.97413376
1314892363.04152489,0.22002672,0.05222956,-0.97409461
1314892363.09328103,0.22001820,0.05207801,-0.97410465
1314892363.14449453,0.21995359,0.05204885,-0.97412080
1314892363.19317746,0.21994841,0.05188371,-0.97413078
1314892363.24535871,0.21979913,0.05184566,-0.97416650
1314892363.29249954,0.21977535,0.05191516,-0.97416816
1314892363.34152842,0.21992222,0.05205377,-0.97412762
1314892363.39353728,0.21995574,0.05196685,-0.97412469
1314892363.44451451,0.21970371,0.05193678,-0.97418317
1314892363.49277472,0.21975640,0.05200584,-0.97416760
1314892363.54458833,0.21981586,0.05216578,-0.97414563
1314892363.59259725,0.21981124,0.05217219,-0.97414633
1314892363.64451385,0.21986834,0.05227232,-0.97412808
1314892363.69249535,0.21977990,0.05248921,-0.97413637
1314892363.74467683,0.21939684,0.05255754,-0.97421904
1314892363.79290962,0.21949553,0.05265089,-0.97419176
1314892363.84160018,0.21958387,0.05240025,-0.97418537
1314892363.89260173,0.21987214,0.05254691,-0.97411245
1314892363.94150925,0.22030246,0.05250254,-0.97401761
1314892363.99259806,0.22048373,0.05277796,-0.97396171
1314892364.04451561,0.22058289,0.05263941,-0.97394675
1314892364.09258056,0.22052218,0.05242300,-0.97397217
1314892364.14190745,0.22051294,0.05258752,-0.97396540
1314892364.19369841,0.22032644,0.05251795,-0.97401136
1314892364.24201059,0.22016037,0.05245841,-0.97405212
1314892364.29259515,0.22024189,0.05235915,-0.97403903
1314892364.34458899,0.22025440,0.05232904,-0.97403782
1314892364.39260626,0.22015133,0.05231553,-0.97406185
1314892364.44459367,0.22010356,0.05228818,-0.97407411
1314892364.49258876,0.22001728,0.05239501,-0.97408786
1314892364.54460692,0.22011010,0.05230529,-0.97407171
1314892364.59360766,0.22002174,0.05238764,-0.97408725
1314892364.64564514,0.22008534,0.05223222,-0.97408123
1314892364.69362116,0.22009415,0.05230311,-0.97407543
1314892364.74444532,0.21999469,0.05230045,-0.97409804
1314892364.79257631,0.22002437,0.05248372,-0.97408148
1314892364.84510446,0.22001814,0.05249419,-0.97408233
1314892364.89263296,0.21997070,0.05281882,-0.97407549
1314892364.94449282,0.22003866,0.05283285,-0.97405938
1314892364.99246931,0.22012694,0.05273880,-0.97404453
1314892365.04459214,0.21992792,0.05270249,-0.97409145
1314892365.09257746,0.21981520,0.05285804,-0.97410847
1314892365.14458346,0.22000163,0.05302289,-0.97405742
1314892365.19258738,0.21974093,0.05284984,-0.97412567
1314892365.24446487,0.21980190,0.05298792,-0.97410441
1314892365.29356503,0.21959531,0.05313432,-0.97414303
1314892365.34157252,0.21970194,0.05328990,-0.97411049
1314892365.39255810,0.21957293,0.05326662,-0.97414085
1314892365.44554353,0.21946923,0.05274999,-0.97419233
1314892365.49261832,0.21957033,0.05285470,-0.97416387
1314892365.54448986,0.21954339,0.05274998,-0.97417562
1314892365.59246039,0.21961530,0.05273435,-0.97416026
1314892365.64457822,0.21953757,0.05284401,-0.97417184
1314892365.69251561,0.21951459,0.05251037,-0.97419505
1314892365.74144149,0.21968132,0.05262295,-0.97415140
1314892365.79252744,0.21961960,0.05286564,-0.97415217
1314892365.84452939,0.21931729,0.05289233,-0.97421883
1314892365.89258647,0.21906243,0.05275486,-0.97428362
1314892365.94116211,0.21935359,0.05290426,-0.97421001
1314892365.99414897,0.21939598,0.05291795,-0.97419972
1314892366.04448986,0.21941396,0.05311408,-0.97418500
1314892366.09253192,0.21934407,0.05312762,-0.97420000
1314892366.14120722,0.21918918,0.05311945,-0.97423530
1314892366.19247627,0.21874829,0.05274777,-0.97435459
1314892366.24449706,0.21861617,0.05272990,-0.97438520
1314892366.29262900,0.21848239,0.05263487,-0.97442035
1314892366.34461021,0.21833359,0.05282873,-0.97444321
1314892366.39348912,0.21862484,0.05297302,-0.97437007
1314892366.44449902,0.21843551,0.05287630,-0.97441779
1314892366.49268413,0.21849791,0.05280630,-0.97440759
1314892366.54451299,0.21834341,0.05279282,-0.97444296
1314892366.59247136,0.21818074,0.05323011,-0.97445560
1314892366.64460564,0.21822703,0.05341614,-0.97443506
1314892366.69358683,0.21824556,0.05354941,-0.97442359
1314892366.74458075,0.21838901,0.05365728,-0.97438552
1314892366.79257703,0.21843349,0.05340627,-0.97438934
1314892366.84551048,0.21829066,0.05348733,-0.97441690
1314892366.89361310,0.21815014,0.05362307,-0.97444091
1314892366.94560051,0.21801576,0.05376885,-0.97446295
1314892366.99259424,0.21793077,0.05393954,-0.97447253
1314892367.04134274,0.21787475,0.05408829,-0.97447681
1314892367.09360576,0.21802242,0.05429941,-0.97443204
1314892367.14484882,0.21793781,0.05407483,-0.97446345
1314892367.19361210,0.21751556,0.05392357,-0.97456618
1314892367.24184537,0.21739321,0.05360526,-0.97461103
1314892367.29259133,0.21731185,0.05365766,-0.97462630
1314892367.34566498,0.21741505,0.05380110,-0.97459537
1314892367.39260840,0.21728052,0.05368426,-0.97463182
1314892367.44567132,0.21736026,0.05386922,-0.97460383
1314892367.49258757,0.21769881,0.05364535,-0.97454061
1314892367.54449916,0.21773097,0.05368219,-0.97453140
1314892367.59264565,0.21773388,0.05358647,-0.97453602
1314892367.64553571,0.21753316,0.05344317,-0.97458871
1314892367.69362307,0.21756488,0.05334673,-0.97458691
1314892367.74166250,0.21739001,0.05325082,-0.97463118
1314892367.79257941,0.21763101,0.05326018,-0.97457688
1314892367.84465909,0.21742717,0.05328312,-0.97462112
1314892367.89263391,0.21731907,0.05309164,-0.97465568
1314892367.94552732,0.21744136,0.05351612,-0.97460519
1314892367.99369192,0.21734879,0.05345525,-0.97462918
1314892368.04458427,0.21717623,0.05383690,-0.97464664
1314892368.09361362,0.21707715,0.05392820,-0.97466367
1314892368.14451981,0.21689156,0.05384643,-0.97470950
1314892368.19260645,0.21667748,0.05369309,-0.97476557
1314892368.24450994,0.21677540,0.05370289,-0.97474326
1314892368.29259920,0.21674854,0.05362962,-0.97475327
1314892368.34449434,0.21704495,0.05388063,-0.97467347
1314892368.39251208,0.21684098,0.05390902,-0.97471730
1314892368.44546056,0.21679656,0.05331393,-0.97475991
1314892368.49253154,0.21670860,0.05328689,-0.97478094
1314892368.54449940,0.21663608,0.05317337,-0.97480326
1314892368.59254050,0.21677318,0.05307537,-0.97477812
1314892368.64420938,0.21688863,0.05335141,-0.97473737
1314892368.69253635,0.21733126,0.05325538,-0.97464403
1314892368.74151731,0.21741470,0.05307346,-0.97463535
1314892368.79253244,0.21754595,0.05297411,-0.97461146
1314892368.84472752,0.21776695,0.05305408,-0.97455776
1314892368.89258718,0.21771674,0.05304121,-0.97456967
1314892368.94453239,0.21782671,0.05283883,-0.97455609
1314892368.99253058,0.21769972,0.05272364,-0.97459071
1314892369.04449701,0.21750885,0.05266826,-0.97463632
1314892369.09261370,0.21769657,0.05252077,-0.97460237
1314892369.14460111,0.21758903,0.05246406,-0.97462944
1314892369.19260097,0.21766308,0.05232695,-0.97462027
1314892369.24161625,0.21767630,0.05218401,-0.97462498
1314892369.29251385,0.21808971,0.05242661,-0.97451954
1314892369.34162164,0.21796766,0.05241205,-0.97454763
1314892369.39253640,0.21789674,0.05215977,-0.97457702
1314892369.44151425,0.21828891,0.05205769,-0.97449471
1314892369.49258542,0.21841125,0.05215798,-0.97446194
1314892369.54446578,0.21838650,0.05220559,-0.97446494
1314892369.59261775,0.21867374,0.05198452,-0.97441234
1314892369.64105392,0.21863733,0.05222857,-0.97440746
1314892369.69248772,0.21868617,0.05213643,-0.97440143
1314892369.74161673,0.21858183,0.05225715,-0.97441838
1314892369.79251647,0.21859338,0.05248365,-0.97440361
1314892369.84161520,0.21831679,0.05234824,-0.97447291
1314892369.89247870,0.21821213,0.05248224,-0.97448914
1314892369.94161415,0.21828683,0.05249891,-0.97447151
1314892369.99360609,0.21839048,0.05280362,-0.97443182
1314892370.04458833,0.21846609,0.05283132,-0.97441337
1314892370.09252858,0.21851312,0.05268365,-0.97441082
1314892370.14162111,0.21885119,0.05273578,-0.97433213
1314892370.19247723,0.21877030,0.05271257,-0.97435155
1314892370.24162006,0.21861495,0.05271254,-0.97438642
1314892370.29360485,0.21835468,0.05270766,-0.97444504
1314892370.34501600,0.21832617,0.05281222,-0.97444577
1314892370.39257669,0.21809828,0.05281369,-0.97449672
1314892370.44467759,0.21806682,0.05255065,-0.97451798
1314892370.49260902,0.21818394,0.05271946,-0.97448265
1314892370.54461098,0.21820098,0.05275458,-0.97447693
1314892370.59250140,0.21821787,0.05298391,-0.97446071
1314892370.64164591,0.21813829,0.05279650,-0.97448869
1314892370.69360256,0.21800669,0.05271574,-0.97452252
1314892370.74162602,0.21819229,0.05278529,-0.97447721
1314892370.79349494,0.21827900,0.05284181,-0.97445473
1314892370.84560013,0.21853752,0.05309003,-0.97438329
1314892370.89259267,0.21835708,0.05314594,-0.97442070
1314892370.94461417,0.21818927,0.05284121,-0.97447486
1314892370.99359107,0.21821243,0.05303979,-0.97445888
1314892371.04449248,0.21810029,0.05307829,-0.97448189
1314892371.09257507,0.21824962,0.05314427,-0.97444486
1314892371.14450121,0.21822569,0.05307851,-0.97445381
1314892371.19259262,0.21830887,0.05312029,-0.97443290
1314892371.24453545,0.21827440,0.05322409,-0.97443496
1314892371.29252934,0.21818736,0.05312380,-0.97445992
1314892371.34451771,0.21820382,0.05314058,-0.97445532
1314892371.39339471,0.21812161,0.05307227,-0.97447745
1314892371.44149804,0.21802948,0.05308356,-0.97449745
1314892371.49350333,0.21806444,0.05303665,-0.97449218
1314892371.54450226,0.21794159,0.05286089,-0.97452921
1314892371.59348822,0.21782192,0.05292470,-0.97455251
1314892371.64451504,0.21780237,0.05297493,-0.97455415
1314892371.69335103,0.21774323,0.05312735,-0.97455906
1314892371.74449658,0.21786691,0.05344792,-0.97451389
1314892371.79335618,0.21794596,0.05340320,-0.97449867
1314892371.84570432,0.21806196,0.05319723,-0.97448398
1314892371.89335346,0.21794800,0.05319742,-0.97450947
1314892371.94551897,0.21786503,0.05320662,-0.97452752
1314892371.99334931,0.21804462,0.05336884,-0.97447848
1314892372.04526877,0.21798583,0.05341353,-0.97448919
1314892372.09314895,0.21810228,0.05328207,-0.97447033
1314892372.14527559,0.21808971,0.05327685,-0.97447342
1314892372.19247365,0.21786938,0.05307784,-0.97453357
1314892372.24577975,0.21780585,0.05303137,-0.97455030
1314892372.29303908,0.21761151,0.05317934,-0.97458565
1314892372.34553623,0.21778809,0.05344625,-0.97453160
1314892372.39252210,0.21789658,0.05336421,-0.97451185
1314892372.44148684,0.21773834,0.05343183,-0.97454351
1314892372.49261332,0.21777579,0.05323560,-0.97454588
1314892372.54498911,0.21780871,0.05321278,-0.97453977
1314892372.59351659,0.21803338,0.05326413,-0.97448672
1314892372.64564824,0.21790832,0.05319868,-0.97451827
1314892372.69351196,0.21768408,0.05337681,-0.97455865
1314892372.74551392,0.21792302,0.05332902,-0.97450786
1314892372.79316616,0.21772060,0.05317405,-0.97456157
1314892372.84455037,0.21761424,0.05302229,-0.97459360
1314892372.89265060,0.21770771,0.05290902,-0.97457888
1314892372.94161797,0.21767116,0.05311542,-0.97457582
1314892372.99301147,0.21774723,0.05294435,-0.97456813
1314892373.04560590,0.21766985,0.05290307,-0.97458766
1314892373.09375286,0.21764002,0.05286906,-0.97459616
1314892373.14568377,0.21766959,0.05297449,-0.97458384
1314892373.19261956,0.21795010,0.05289879,-0.97452526
1314892373.24161434,0.21794213,0.05305761,-0.97451840
1314892373.29264545,0.21808861,0.05306823,-0.97448505
1314892373.34161210,0.21803288,0.05306571,-0.97449766
1314892373.39263105,0.21809028,0.05298628,-0.97448914
1314892373.44557810,0.21817640,0.05306825,-0.97446540
1314892373.49262714,0.21812889,0.05326385,-0.97446537
1314892373.54166389,0.21799689,0.05344265,-0.97448511
1314892373.59251785,0.21795697,0.05359399,-0.97448573
1314892373.64563107,0.21765880,0.05351578,-0.97455667
1314892373.69262552,0.21776317,0.05351014,-0.97453367
1314892373.74550295,0.21770928,0.05333750,-0.97455517
1314892373.79259729,0.21767676,0.05348409,-0.97455440
1314892373.84551072,0.21748595,0.05338891,-0.97460222
1314892373.89254212,0.21774782,0.05344206,-0.97454083
1314892373.94164491,0.21787998,0.05355124,-0.97450530
1314892373.99252605,0.21785370,0.05353231,-0.97451222
1314892374.04558659,0.21796574,0.05337634,-0.97449572
1314892374.09250021,0.21802557,0.05310982,-0.97449689
1314892374.14247513,0.21811358,0.05333305,-0.97446501
1314892374.19254732,0.21826279,0.05320410,-0.97443865
1314892374.24425077,0.21830551,0.05323488,-0.97442740
1314892374.29251814,0.21811419,0.05313364,-0.97447577
1314892374.34852099,0.21803133,0.05307988,-0.97449724
1314892374.39252496,0.21803547,0.05310830,-0.97449476
1314892374.44582725,0.21807875,0.05262783,-0.97451114
1314892374.49249434,0.21807903,0.05269116,-0.97450766
1314892374.54140329,0.21808592,0.05265415,-0.97450812
1314892374.59348989,0.21823516,0.05267673,-0.97447349
1314892374.64535546,0.21833757,0.05263717,-0.97445268
1314892374.69259286,0.21851514,0.05232343,-0.97442978
1314892374.74551988,0.21855301,0.05228067,-0.97442358
1314892374.79332328,0.21861432,0.05224257,-0.97441187
1314892374.84148574,0.21854195,0.05202442,-0.97443978
1314892374.89351463,0.21861738,0.05194200,-0.97442725
1314892374.94554639,0.21900317,0.05196385,-0.97433945
1314892374.99258924,0.21891344,0.05217701,-0.97434823
1314892375.04151177,0.21922582,0.05227835,-0.97427256
1314892375.09260464,0.21933942,0.05246556,-0.97423692
1314892375.14152336,0.21941764,0.05264543,-0.97420961
1314892375.19259405,0.21940848,0.05238205,-0.97422587
1314892375.24151063,0.21934400,0.05209890,-0.97425557
1314892375.29252291,0.21926716,0.05211637,-0.97427193
1314892375.34146905,0.21898666,0.05194535,-0.97434415
1314892375.39256310,0.21926386,0.05191279,-0.97428354
1314892375.44146848,0.21949850,0.05176136,-0.97423876
1314892375.49355602,0.21928073,0.05195323,-0.97427759
1314892375.54501486,0.21929173,0.05189940,-0.97427798
1314892375.59348321,0.21913821,0.05190507,-0.97431222
1314892375.64160275,0.21915496,0.05212023,-0.97429697
1314892375.69257498,0.21930455,0.05207526,-0.97426571
1314892375.74161077,0.21939537,0.05218174,-0.97423957
1314892375.79253149,0.21933168,0.05228483,-0.97424838
1314892375.84161210,0.21900758,0.05226262,-0.97432248
1314892375.89258647,0.21911116,0.05229046,-0.97429770
1314892375.94532251,0.21933669,0.05230082,-0.97424640
1314892375.99278092,0.21940273,0.05222451,-0.97423562
1314892376.04147005,0.21959880,0.05223247,-0.97419102
1314892376.09273553,0.21943368,0.05221732,-0.97422903
1314892376.14449692,0.21950634,0.05215978,-0.97421575
1314892376.19294596,0.21957484,0.05216742,-0.97419990
1314892376.24475646,0.21950987,0.05233772,-0.97420541
1314892376.29369879,0.21935540,0.05242846,-0.97423532
1314892376.34450531,0.21913256,0.05244949,-0.97428434
1314892376.39261174,0.21895884,0.05232971,-0.97432984
1314892376.44546866,0.21901713,0.05221798,-0.97432273
1314892376.49367142,0.21866870,0.05213075,-0.97440566
1314892376.54474926,0.21864359,0.05212998,-0.97441133
1314892376.59263039,0.21864493,0.05224133,-0.97440507
1314892376.64458394,0.21845692,0.05228697,-0.97444479
1314892376.69267988,0.21874538,0.05236688,-0.97437578
1314892376.74478769,0.21887251,0.05244316,-0.97434313
1314892376.79258323,0.21891125,0.05250087,-0.97433132
1314892376.84160352,0.21897885,0.05240398,-0.97432135
1314892376.89259458,0.21915442,0.05256047,-0.97427344
1314892376.94570875,0.21966238,0.05266358,-0.97415347
1314892376.99349570,0.21961223,0.05269493,-0.97416308
1314892377.04545712,0.21949090,0.05252685,-0.97419950
